Ceredo, WV

12:14 PM EST on February 12, 2016 (GMT -0500)
Tri-State / Ferguson

Weather History for KHTS - October, 2011

Change the Weather History Date:

Saturday, October 8, 2011

  Actual Average Record
Temperature  
Mean Temperature 64 °F 59 °F  
Max Temperature 79 °F 71 °F 93 °F (2007)
Min Temperature 49 °F 47 °F 29 °F (2000)
Degree Days  
Heating Degree Days 1 7  
Month to date heating degree days 72 48  
Since 1 July heating degree days 127 106  
Cooling Degree Days 0 1  
Month to date cooling degree days 0 10  
Year to date cooling degree days 1237 1121  
Growing Degree Days 14 (Base 50)    
Moisture  
Dew Point 51 °F    
Average Humidity 66    
Maximum Humidity 100    
Minimum Humidity 32    
Precipitation  
Precipitation 0.00 in 0.09 in 1.38 in (1903)
Month to date precipitation 0.15 0.70  
Year to date precipitation 48.37 33.73  
Snow  
Snow 0.00 in - - ()
Month to date snowfall 0.0  
Since 1 September snowfall 0.0  
Snow Depth 0.00 in    
Sea Level Pressure  
Sea Level Pressure 30.39 in    
Wind  
Wind Speed 2 mph (East)    
Max Wind Speed 7 mph    
Max Gust Speed 10 mph    
Visibility 9 miles    
Events      
T = Trace of Precipitation, MM = Missing Value Source: NWS Daily Summary

Daily Weather History Graph

Daily Weather History Graph

Search for Another Location

Airport or City:

Trip Planner

Search our weather history database for the weather conditions in past years. The results will help you decide how hot, cold, wet, or windy it might be!

Date:

Astronomy

Oct. 08, 2011 Rise Set
Actual Time 7:32 AM EDT 7:02 PM EDT
Civil Twilight 7:05 AM EDT 7:29 PM EDT
Nautical Twilight 6:35 AM EDT 7:59 PM EDT
Astronomical Twilight 6:04 AM EDT 8:30 PM EDT
Moon 5:11 PM EDT (10/8) 4:20 AM EDT (10/8)
Length of Visible Light 12h 23m
Length of Day
11h 30m
Waxing Gibbous, 90% of the Moon is Illuminated
Oct 8
Waxing Gibbous
Oct 11
Full
Oct 19
Last Quarter
Oct 26
New
Nov 2
First Quarter

Hourly Weather History & Observations

Time (EDT) Temp. Dew Point Humidity Pressure Visibility Wind Dir Wind Speed Gust Speed Precip Events Conditions
12:51 AM 57.9 °F 54.0 °F 87% 30.35 in 10.0 mi ESE 3.5 mph - N/A   Clear
1:51 AM 55.4 °F 53.6 °F 94% 30.37 in 10.0 mi Calm Calm - N/A   Clear
2:51 AM 53.6 °F 53.6 °F 100% 30.37 in 8.0 mi East 4.6 mph - N/A   Clear
3:51 AM 54.0 °F 53.1 °F 97% 30.36 in 10.0 mi East 3.5 mph - N/A   Clear
4:51 AM 52.0 °F 51.1 °F 97% 30.37 in 8.0 mi Calm Calm - N/A   Clear
5:51 AM 52.0 °F 51.1 °F 97% 30.39 in 8.0 mi East 4.6 mph - N/A   Clear
6:51 AM 50.0 °F 48.2 °F 94% 30.42 in 7.0 mi Calm Calm - N/A   Clear
7:51 AM 50.0 °F 48.0 °F 93% 30.43 in 6.0 mi Calm Calm - N/A   Clear
8:51 AM 55.0 °F 52.0 °F 89% 30.45 in 9.0 mi Calm Calm - N/A   Clear
9:51 AM 61.0 °F 55.0 °F 81% 30.45 in 10.0 mi East 3.5 mph - N/A   Clear
10:51 AM 66.9 °F 53.1 °F 61% 30.46 in 10.0 mi SSW 4.6 mph - N/A   Clear
11:51 AM 71.1 °F 53.1 °F 53% 30.44 in 10.0 mi Calm Calm - N/A   Clear
12:51 PM 73.0 °F 52.0 °F 48% 30.42 in 10.0 mi Calm Calm - N/A   Clear
1:51 PM 75.9 °F 52.0 °F 43% 30.39 in 10.0 mi Calm Calm - N/A   Clear
2:51 PM 77.0 °F 51.1 °F 40% 30.37 in 10.0 mi ENE 4.6 mph - N/A   Clear
3:51 PM 78.1 °F 46.0 °F 32% 30.36 in 10.0 mi ESE 5.8 mph - N/A   Clear
4:51 PM 78.1 °F 46.9 °F 33% 30.35 in 10.0 mi East 5.8 mph - N/A   Clear
5:51 PM 75.9 °F 45.0 °F 33% 30.35 in 10.0 mi Calm Calm - N/A   Clear
6:51 PM 71.1 °F 48.0 °F 44% 30.35 in 10.0 mi ENE 3.5 mph - N/A   Clear
7:51 PM 66.0 °F 50.0 °F 56% 30.36 in 10.0 mi East 3.5 mph - N/A   Clear
8:51 PM 61.0 °F 51.1 °F 70% 30.37 in 10.0 mi ENE 3.5 mph - N/A   Clear
9:51 PM 59.0 °F 51.1 °F 75% 30.38 in 10.0 mi East 3.5 mph - N/A   Clear
10:51 PM 55.9 °F 51.1 °F 84% 30.37 in 10.0 mi Calm Calm - N/A   Clear
11:51 PM 54.0 °F 51.1 °F 90% 30.37 in 10.0 mi Calm Calm - N/A   Clear